Tracking 19817 objects as of 18-Aug-2019
HD Live streaming from Space Station
objects crossing your sky now

FENGYUN 1C DEB

Track FENGYUN 1C DEB now!
10-day predictions


NORAD ID: 31323
Int'l Code: 1999-025BQB
Perigee: 831.2 km
Apogee: 889.0 km
Inclination: 99.4 °
Period: 102.0 minutes
Semi major axis: 7231 km
RCS: 0.0017 m2 (small)
Launch date: May 10, 1999
Source: People's Republic of China (PRC)
Launch site: Taiyaun Space Center, China (TSC)

Note: This is SATELLITE DEBRIS
aabbcc
Your satellite tracking list
Your tracking list is empty




NASA's NSSDC Master Catalog

Two Line Element Set (TLE):
1 31323U 99025BQB 19228.43326849  .00000535  00000-0  31679-3 0  9990
2 31323  99.3994 105.8236 0039996  76.3466 284.2152 14.11875236634061
Source of the keplerian elements: AFSPC